| time (UTC) | temp C | wind direction | speed KPH | gust KPH | rain 1hr cm | rain 24hr cm | rain mn cm | humidity % | barometer mb |
| 20260505153012 | 26 | 195 | 3.2 | 9.7 | 0.00 | 0.00 | 0.00 | 84 | 1008.2 |
| 20260505151510 | 26 | 191 | 1.6 | 16.1 | 0.00 | 0.00 | 0.00 | 84 | 1008.1 |
| 20260505124551 | 23 | 182 | 1.6 | 11.3 | 0.00 | 0.00 | 0.00 | 90 | 1007.7 |
| 20260505123048 | 23 | 198 | 1.6 | 11.3 | 0.00 | 0.00 | 0.00 | 90 | 1007.6 |
| 20260505121548 | 23 | 151 | 1.6 | 8.0 | 0.00 | 0.00 | 0.00 | 91 | 1007.7 |
| 20260505120050 | 22 | 162 | 1.6 | 11.3 | 0.00 | 0.00 | 0.00 | 91 | 1007.8 |
| 20260505114546 | 22 | 154 | 1.6 | 6.4 | 0.00 | 0.00 | 0.00 | 91 | 1007.5 |
| 20260505113051 | 22 | 190 | 3.2 | 8.0 | 0.00 | 0.00 | 0.00 | 91 | 1007.5 |
| 20260505111544 | 22 | 148 | 1.6 | 3.2 | 0.00 | 0.00 | 0.00 | 91 | 1007.7 |
| 20260505101558 | 22 | 158 | 1.6 | 8.0 | 0.00 | 0.00 | 0.00 | 90 | 1007.6 |
| 20260505100057 | 22 | 150 | 0.0 | 8.0 | 0.00 | 0.00 | 0.00 | 89 | 1007.5 |
| 20260505094538 | 22 | 215 | 0.0 | 6.4 | 0.00 | 0.00 | 0.00 | 89 | 1007.7 |
| 20260505093038 | 22 | 145 | 1.6 | 8.0 | 0.00 | 0.00 | 0.00 | 89 | 1007.8 |
| 20260505091536 | 22 | 175 | 0.0 | 4.8 | 0.00 | 0.00 | 0.00 | 89 | 1007.8 |
| 20260505090037 | 22 | 220 | 0.0 | 4.8 | 0.00 | 0.00 | 0.00 | 89 | 1007.9 |
| 20260505084537 | 22 | 198 | 0.0 | 8.0 | 0.00 | 0.00 | 0.00 | 89 | 1007.7 |
| 20260505083035 | 22 | 187 | 0.0 | 9.7 | 0.00 | 0.00 | 0.00 | 88 | 1007.7 |
| 20260505081534 | 22 | 134 | 3.2 | 9.7 | 0.00 | 0.00 | 0.00 | 88 | 1007.9 |
| 20260505080037 | 22 | 210 | 3.2 | 8.0 | 0.00 | 0.00 | 0.00 | 87 | 1008.1 |
| 20260505074531 | 22 | 173 | 3.2 | 11.3 | 0.00 | 0.00 | 0.00 | 87 | 1008.2 |
| 20260505073036 | 22 | 174 | 3.2 | 11.3 | 0.00 | 0.00 | 0.00 | 87 | 1008.2 |
| 20260505071527 | 22 | 159 | 3.2 | 9.7 | 0.00 | 0.00 | 0.00 | 87 | 1008.4 |
| 20260505070025 | 22 | 167 | 3.2 | 8.0 | 0.00 | 0.00 | 0.00 | 87 | 1008.6 |
| 20260505064522 | 22 | 193 | 0.0 | 9.7 | 0.00 | 0.00 | 0.00 | 87 | 1008.9 |
| 20260505063020 | 22 | 221 | 1.6 | 8.0 | 0.00 | 0.00 | 0.00 | 88 | 1009.2 |
| 20260505061524 | 22 | 185 | 1.6 | 6.4 | 0.00 | 0.00 | 0.00 | 87 | 1009.2 |
| 20260505060017 | 21 | 215 | 1.6 | 4.8 | 0.00 | 0.00 | 0.00 | 87 | 1009.1 |
| 20260505054517 | 21 | 143 | 1.6 | 6.4 | 0.00 | 0.00 | 0.00 | 87 | 1009.3 |
| 20260505053030 | 21 | 200 | 1.6 | 9.7 | 0.00 | 0.00 | 0.00 | 86 | 1009.3 |
| 20260505051532 | 22 | 210 | 1.6 | 11.3 | 0.00 | 0.00 | 0.00 | 86 | 1009.4 |
| 20260505041510 | 21 | 150 | 0.0 | 6.4 | 0.00 | 0.00 | 0.00 | 85 | 1009.8 |
| 20260505040009 | 21 | 202 | 1.6 | 4.8 | 0.00 | 0.00 | 0.00 | 85 | 1009.9 |
| 20260505034509 | 21 | 162 | 0.0 | 6.4 | 0.00 | 0.00 | 0.00 | 85 | 1010.2 |
| 20260505033008 | 21 | 199 | 3.2 | 9.7 | 0.00 | 0.00 | 0.00 | 84 | 1010.0 |
| 20260505031509 | 22 | 205 | 0.0 | 8.0 | 0.00 | 0.00 | 0.00 | 83 | 1010.0 |
| 20260505030007 | 22 | 199 | 1.6 | 6.4 | 0.00 | 0.00 | 0.00 | 83 | 1010.1 |
| 20260505024508 | 22 | 148 | 1.6 | 8.0 | 0.00 | 0.00 | 0.00 | 83 | 1010.1 |
| 20260505023011 | 22 | 155 | 1.6 | 9.7 | 0.00 | 0.00 | 0.00 | 82 | 1010.1 |
| 20260505021505 | 22 | 222 | 3.2 | 9.7 | 0.00 | 0.00 | 0.00 | 82 | 1009.9 |
| 20260505020005 | 22 | 190 | 3.2 | 9.7 | 0.00 | 0.00 | 0.00 | 81 | 1009.9 |
| 20260505014505 | 22 | 192 | 3.2 | 11.3 | 0.00 | 0.00 | 0.00 | 81 | 1009.7 |
| 20260505013004 | 22 | 180 | 1.6 | 11.3 | 0.00 | 0.00 | 0.00 | 80 | 1009.8 |
| 20260505011503 | 23 | 195 | 1.6 | 8.0 | 0.00 | 0.00 | 0.00 | 80 | 1009.7 |
| 20260505010005 | 23 | 194 | 3.2 | 8.0 | 0.00 | 0.00 | 0.00 | 80 | 1009.7 |
| 20260505004502 | 23 | 198 | 4.8 | 11.3 | 0.00 | 0.00 | 0.00 | 79 | 1009.5 |
| 20260505003003 | 23 | 211 | 4.8 | 16.1 | 0.00 | 0.00 | 0.00 | 78 | 1009.5 |
| 20260505001601 | 24 | 183 | 4.8 | 12.9 | 0.00 | 0.00 | 0.00 | 77 | 1009.5 |
| 20260505000100 | 25 | 103 | 4.8 | 14.5 | 0.00 | 0.00 | 0.00 | 76 | 1009.7 |
| 20260504234558 | 25 | 215 | 3.2 | 17.7 | 0.00 | 0.00 | 0.00 | 76 | 1009.7 |
| 20260504233057 | 25 | 203 | 4.8 | 17.7 | 0.00 | 0.00 | 0.00 | 75 | 1009.9 |
| 20260504231559 | 25 | 203 | 3.2 | 14.5 | 0.00 | 0.00 | 0.00 | 76 | 1010.0 |
| 20260504230054 | 25 | 210 | 8.0 | 17.7 | 0.00 | 0.00 | 0.00 | 76 | 1010.3 |
| 20260504224553 | 25 | 199 | 4.8 | 16.1 | 0.00 | 0.00 | 0.00 | 76 | 1010.3 |
| 20260504223059 | 25 | 174 | 3.2 | 11.3 | 0.00 | 0.00 | 0.00 | 76 | 1010.6 |
| 20260504221601 | 25 | 212 | 4.8 | 16.1 | 0.00 | 0.00 | 0.00 | 75 | 1010.7 |
| 20260504220048 | 25 | 175 | 6.4 | 12.9 | 0.00 | 0.00 | 0.00 | 75 | 1010.8 |
| 20260504214547 | 25 | 191 | 4.8 | 14.5 | 0.00 | 0.00 | 0.00 | 74 | 1010.9 |
| 20260504213059 | 26 | 174 | 6.4 | 17.7 | 0.00 | 0.00 | 0.00 | 73 | 1011.1 |
| 20260504211547 | 26 | 165 | 4.8 | 14.5 | 0.00 | 0.00 | 0.00 | 73 | 1011.1 |
| 20260504210041 | 26 | 210 | 3.2 | 14.5 | 0.00 | 0.00 | 0.00 | 72 | 1011.4 |
| 20260504204539 | 26 | 200 | 4.8 | 12.9 | 0.00 | 0.00 | 0.00 | 70 | 1011.6 |
| 20260504203047 | 27 | 162 | 4.8 | 14.5 | 0.00 | 0.00 | 0.00 | 69 | 1011.8 |
| 20260504201535 | 26 | 210 | 3.2 | 16.1 | 0.00 | 0.00 | 0.00 | 70 | 1011.9 |
| 20260504200034 | 27 | 206 | 3.2 | 11.3 | 0.00 | 0.00 | 0.00 | 69 | 1012.0 |
| 20260504194540 | 27 | 217 | 4.8 | 11.3 | 0.00 | 0.00 | 0.00 | 66 | 1012.2 |
| 20260504193030 | 27 | 204 | 4.8 | 14.5 | 0.00 | 0.00 | 0.00 | 67 | 1012.6 |
| 20260504191537 | 27 | 119 | 4.8 | 12.9 | 0.00 | 0.00 | 0.00 | 68 | 1012.5 |
| 20260504190028 | 27 | 198 | 4.8 | 14.5 | 0.00 | 0.00 | 0.00 | 67 | 1012.6 |
| 20260504184529 | 27 | 165 | 4.8 | 12.9 | 0.00 | 0.00 | 0.00 | 68 | 1012.7 |
| 20260504183025 | 27 | 206 | 6.4 | 12.9 | 0.00 | 0.00 | 0.00 | 67 | 1012.8 |
| 20260504181522 | 27 | 205 | 1.6 | 20.9 | 0.00 | 0.00 | 0.00 | 71 | 1013.2 |
| 20260504180020 | 27 | 200 | 4.8 | 17.7 | 0.00 | 0.00 | 0.00 | 67 | 1013.3 |
| 20260504174519 | 27 | 135 | 4.8 | 16.1 | 0.00 | 0.00 | 0.00 | 69 | 1013.4 |
| 20260504173018 | 26 | 190 | 3.2 | 17.7 | 0.00 | 0.00 | 0.00 | 70 | 1013.7 |
| 20260504171512 | 26 | 233 | 3.2 | 16.1 | 0.00 | 0.00 | 0.00 | 68 | 1013.9 |